Weather Roundup
Issued by NWS Corpus Christi, TX

Home | Current Version | Previous Version | Text Only | Print | Product List | Glossary On
Versions: 1 2 3 4 5 6 7 8 9 10 11 12 13 14 15 16 17 18 19 20 21 22 23 24 25 26 27 28 29 30 31 32 33 34 35 36 37 38 39 40 41 42 43 44 45 46 47 48 49 50
000
ASUS44 KCRP 251910
HRRCRP

SOUTH TEXAS REGIONAL WEATHER ROUNDUP
NATIONAL WEATHER SERVICE CORPUS CHRISTI TX
200 PM CDT FRI JUL 25 2014


TXZ229>244-252000-
...CORPUS CHRISTI AREA OBSERVATIONS...

CITY           SKY/WX    TMP DP  RH WIND       PRES   REMARKS
CORPUS CHRISTI PTSUNNY   95  75  52 SE22      29.97F HX 107
NAS CORPUS CHR MOSUNNY   91  77  63 SE18      30.00S HX 104
ROCKPORT       SUNNY     90  75  61 SE14      30.00F HX 100
KINGSVILLE NAS LGT RAIN  95  76  53 SE7       29.96F HX 108
ALICE          MOSUNNY   99  68  36 CALM      29.96F HX 104
FALFURRIAS     SUNNY     93  62  34 SE10      29.96S HX  93
$$

...VICTORIA AREA OBSERVATIONS...

CITY           SKY/WX    TMP DP  RH WIND       PRES   REMARKS
VICTORIA       MOSUNNY   96  70  42 SE7       29.99F HX 102
BEEVILLE       PTSUNNY   96  64  34 SE5       29.98F HX  98
PLEASANTON     MOSUNNY   95  65  37 CALM      29.99F HX  97
SAN ANTONIO    MOSUNNY   91  69  48 VRB3      30.02F HX  96
$$

...LAREDO AREA OBSERVATIONS...

CITY           SKY/WX    TMP DP  RH WIND       PRES   REMARKS
LAREDO         MOSUNNY  100  68  35 SE6       29.98F HX 105
COTULLA        SUNNY     95  65  37 CALM      29.97F HX  97
DEL RIO        SUNNY     95  67  39 SE14      29.97F HX  99
MCALLEN        SUNNY    100  63  29 SE15G22   29.95F HX 102
HEBBRONVILLE   PTSUNNY   95  64  35 SE7       29.98F HX  97
$$

...OTHER TEXAS OBSERVATIONS...

CITY           SKY/WX    TMP DP  RH WIND       PRES   REMARKS
BROWNSVILLE    MOSUNNY   95  72  47 S15G26    29.99F HX 103
HOUSTON        MOSUNNY   93  70  46 VRB3      30.00F HX  99
COL. STATION   MOSUNNY   91  71  51 S6        30.01F HX  97
AUSTIN         MOSUNNY   94  68  42 S9        29.99F HX  98
WACO           SUNNY     95  69  42 SE12      29.99F HX 100
FORT WORTH     MOSUNNY   96  67  38 VRB3      29.97F HX 100
WICHITA FALLS  SUNNY     96  65  35 S13       29.94F HX  98
LUBBOCK        MOSUNNY   97  55  24 S9        30.06F HX  95
EL PASO        MOSUNNY   94  48  20 S9        30.09F HX  90
$$

...MARINE OBSERVATIONS...

STATION/POSITION TIME  SKY/WX   TEMP    WIND        PRES    VSBY  WAVE   SWELL
                                AIR SEA DIR/SP/G                  HT/PER HT/PER
                 (UTC)          (F)     (DEG/KT/KT) (MB)    (MI)  (FT/S) (FT/S)
PORT ARANSAS     1900            83 86  130/ 11/ 12 1017.0F
BUOY 90 E PORT A 1900            84 87  150/  2/  4 1017.6F         2/ 4   2/ 4
BUOY 45 SE BAFFI 1900            83 83  170/ 10/ 14 1016.4S         2/ 4
BUOY 200 E PT IS 1900            85 86  180/  6/  8 1017.5F         1/ 9   2/ 9
BUOY 15 E GALVES NOT AVBL
$$



USA.gov is the U.S. government's official web portal to all federal, state and local government web resources and services.